星链-4505 (STARLINK-4505 )

导读

STARLINK-4505是美国SpaceX公司星链(Starlink)项目中的一颗V1.5低轨通信卫星,于2022年8月19日发射入轨。作为星链第二代星座的主力型号,它配备激光星间链路,支持卫星间直接通信,降低对地面基站的依赖,可提供更高带宽,助力星链实现全球高速互联网覆盖,扩展了高纬度、偏远及海洋区域的网络覆盖能力,是当前星链星座的重要组成部分。

Basic Information
目录编号:
53556
目录名称:
STARLINK-4505
国际标识:
2022-101AF
轨道中心:
EARTH
卫星名称:
星链-4505
卫星全名:
星链-4505 (STARLINK-4505 )
卫星状态:
在轨 (已飞行1396 天)
发射日期:
2022-08-19 UTC
国别 :
美国 (US)
星等 :
--
Orbit Information
数据来源 国际轨道数据 AOE轨道数据
星历时间 2026-06-15T03:49:14+0800
9小时前
查看轨道信息
2026-06-15T08:00:00+0800
5小时前
查看轨道信息
半长轴 6917.907km 6917.906km
偏心率 0.0001275 0.0001711
轨道倾角 53.160° 53.159°
近地点辐角 91.928° 92.033°
升交点赤经 347.976° 347.194°
平近点角 268.186° 134.532°
近地点 538.887km 538.585km
远地点 540.653km 540.953km
周期 95.438分钟 95.438分钟
每日圈数 15.088315 15.088318
Detailed Information
固有亮度:
5
最大亮度:
2.5
卫星平台:
Starlink v1.5
覆盖范围:
全球
运营商:
太空探索技术公司
运营商所在国:
美国
制造商(研发单位):
太空探索技术公司
制造商所在国:
美国
使用方式:
暂无
Satellite Introduction
星链(Starlink)计划是由太空探索技术公司(SpaceX)提出的一个巨型低轨卫星互联网星座项目,计划在2019年至2024年间在太空搭建由约1.2万颗卫星组成的“星链”网络,其中1584颗将部署在地球上空550千米处的近地轨道,并从2020年开始工作。该卫星仍在工作。
2D Orbit Map
3D Orbit Map
Orbit Altitude Analysis Chart
Orbit Inclination Analysis Chart
Orbit Comprehensive Analysis Chart
View Comprehensive Chart